Location: Home
(42.5358°N, 72.7383°W)
Time: 12:58:50
(UTC-05:00)

A-11 Canister half - Pass Details

Date: 04 December 2021
Orbit: 1516 x 1684 km, 47.2° (Epoch: 26 January)

Event Time Altitude Azimuth Distance (km) Brightness Sun altitude
Rises 10:14:50 0° 282° (WNW) 4,836 11.3 22.1°
Reaches altitude 10° 10:17:58 10° 285° (WNW) 3,871 10.8 22.4°
Maximum altitude 10:27:55 70° 9° (N) 1,754 9.5 23.0°
Drops below altitude 10° 10:38:06 10° 93° (E) 3,947 11.5 23.5°
Sets 10:41:18 0° 96° (E) 4,935 11.9 23.7°
